Погода в Некрасове

Россия / Свердловская область     56°40′20″N   61°39′05″E
темп.,
°C
ветер,
м/с
пор.,
м/с
влажн.,
%
обл.,
%
осадки,
мм/ч
давл.,
гПа
погр.,
м
4 августа, ср
ср423:00+19ссз118718 0.0 101211
02:00+18ююв0088100 0.0 101311
05:00+17юв009151 0.4 101411
08:00+22ююв227688 0.0 1013247
11:00+26ю225730 0.0 1013823
14:00+30ююз234248 0.0 10121501
17:00+31ююз233656 0.0 10111983
20:00+26юз595328 0.0 1011215
5 августа, чт
чт523:00+21ююз22575 0.3 101117
02:00+19з3579100 0.0 101088
05:00+18з228293 0.0 101021
08:00+23зсз226244 0.0 1011163
11:00+28вюв224498 0.0 1010582
14:00+32ю343493 0.0 10081408
17:00+32ююз453430 0.0 10081766
20:00+27ююв33515 0.0 100728
6 августа, пт
пт623:00+21сз377525 0.3 1007102
02:00+19зсз379262 0.6 1008243
05:00+17зсз399529 0.6 1007307
08:00+18зсз578987 0.0 1009479
11:00+19зсз4576100 0.1 1009741
14:00+20зсз4572100 0.0 1010840
17:00+19зсз5882100 0.1 1011624
20:00+17ссз6108499 0.1 1012603
7 августа, сб
сб723:00+17сз4980100 0.1 1013535
02:00+13зсз379386 0.0 1013145
05:00+12зсз49901 0.0 1014217
08:00+16сз59660 0.0 1014503
11:00+20сз68440 0.0 10131437
14:00+23сз68363 0.0 10131860
17:00+23сз68340 0.0 10142057
20:00+18зсз48540 0.0 1015245
8 августа, вс
вс823:00+14зсз512670 0.0 1016325
02:00+12зсз411740 0.0 1016283
05:00+10зсз411810 0.0 1017263
08:00+14зсз611610 0.0 1017777
11:00+18сз684453 0.0 10171334
14:00+21сз68355 0.0 10161690
17:00+21сз68395 0.0 10161872
20:00+17с48622 0.0 1017366